Regional Weather Roundup
Issued by NWS

Home | Current Version | Previous Version | Graphics & Text | Print | Product List | Glossary On
Versions: 1 2 3 4 5 6 7 8 9 10 11 12 13 14 15 16 17 18 19 20 21 22 23 24 25 26 27 28 29 30 31 32 33 34 35 36 37 38 39 40 41 42 43 44 45 46 47 48 49 50
000
ASUS43 KBIS 031410
RWRND

NORTH DAKOTA REGIONAL WEATHER ROUNDUP
NATIONAL WEATHER SERVICE BISMARCK ND
900 AM CDT THU SEP 03 2015

NOTE: "FAIR" INDICATES FEW OR NO CLOUDS BELOW 12,000 FEET WITH NO
SIGNIFICANT WEATHER AND/OR OBSTRUCTIONS TO VISIBILITY.


NDZ001>003-009>011-017-031500-
NORTHWEST NORTH DAKOTA

CITY           SKY/WX    TMP DP  RH WIND       PRES   REMARKS
WILLISTON      SUNNY     68  50  52 N15       29.69S
MINOT          CLOUDY    70  68  93 E6        29.68S FOG
MINOT AFB      FOG       72  72 100 SE7       29.66F VSB 1
$$

NDZ018>021-031>035-040>046-031500-
SOUTHWEST NORTH DAKOTA

CITY           SKY/WX    TMP DP  RH WIND       PRES   REMARKS
BISMARCK       SUNNY     71  68  90 E7        29.69S
DICKINSON      SUNNY     73  53  49 W6        29.68R
GARRISON         N/A     71  30  21 SE10      29.67S
HETTINGER ARPT SUNNY     68  55  63 CALM      29.73R
$$

NDZ004>008-012>016-024-026-027-054-031500-
NORTHEAST NORTH DAKOTA

CITY           SKY/WX    TMP DP  RH WIND       PRES   REMARKS
GRAND FORKS    CLOUDY    72  69  90 SE17      29.78S
GRND FRKS AFB  CLOUDY    71  71  99 SE14      29.78S FOG
DEVILS LAKE    CLOUDY    72  64  78 SE17      29.73R
$$

NDZ022-023-025-028>030-036>039-047>053-031500-
SOUTHEAST NORTH DAKOTA

CITY           SKY/WX    TMP DP  RH WIND       PRES   REMARKS
FARGO          CLOUDY    74  69  85 SE17G23   29.79S
JAMESTOWN      CLOUDY    73  70  90 SE16      29.75R
$$



USA.gov is the U.S. government's official web portal to all federal, state and local government web resources and services.